Wind_Speed
2 1 2 4 6 7 7 7 7 6 5 3 2 3 5 5 6 6 6 6 1 4 5 4 6 5 8 9 9 9 7 7 7 6 6 7 8 8 8 8 8 8 6 7 14 18 18 18 18 16 16 18 18 20 23 23 23 24 23 22 22 21 20 20 20 19 19 18 15 13 11 9 8 8 6 5 4 3 2 2 3 4 4 3 4 6
3 2 6 9 10 9 5 4 4 3 3 3 3 4 4 4 6 6 5 7 2 3 3 2 8 6 7 9 8 9 8 8 8 8 9 9 9 8 9 10 8 5 3 5 10 13 17 18 18 17 17 19 20 22 26 26 25 24 24 24 24 23 22 22 21 20 20 18 16 14 12 11 10 9 8 8 6 5 4 4 3 3 4 4 5 5
2 3 11 9 6 4 3 5 5 3 3 3 2 2 3 4 5 7 5 6 4 3 2 1 9 5 3 4 7 11 12 10 9 12 12 12 12 10 11 10 7 6 5 6 7 10 15 17 19 20 19 20 22 25 27 28 27 26 26 26 26 25 23 21 20 20 19 17 16 15 14 13 12 10 9 8 8 6 5 4 2 2 1 2 4 5
2 7 9 5 6 5 3 3 5 1 0 2 3 3 3 4 1 4 6 7 6 2 2 4 7 2 3 1 5 9 8 3 4 8 7 9 11 10 11 10 10 11 9 8 8 8 12 16 19 22 21 21 23 25 27 28 29 29 28 27 27 25 23 21 19 18 17 16 16 15 15 15 13 11 10 8 7 7 6 5 4 3 3 3 4 4
7 9 5 4 6 6 4 3 2 1 2 3 5 5 3 4 3 4 4 6 6 5 3 6 6 3 3 2 6 6 4 2 2 5 5 6 7 5 6 8 10 11 10 11 11 11 11 13 18 22 23 23 24 26 29 30 31 31 30 28 27 25 23 21 20 18 16 16 17 17 16 14 13 13 12 10 9 9 8 6 4 4 4 4 5 4
8 8 2 2 2 6 5 4 4 6 3 4 5 7 7 5 4 4 4 5 5 5 4 5 5 3 5 1 6 3 3 4 3 7 9 7 5 5 6 7 8 7 7 9 11 11 10 11 17 22 23 23 23 27 31 33 33 31 30 29 28 27 25 23 20 19 18 18 19 19 19 16 15 15 14 12 10 9 8 6 4 3 4 5 5 6
5 4 1 3 4 5 5 5 5 7 5 2 5 7 7 5 2 3 2 4 3 1 3 3 5 2 5 3 5 3 5 7 4 8 9 6 6 7 6 7 7 6 5 5 6 8 9 12 17 21 24 25 25 27 31 33 32 31 31 31 30 28 26 24 22 20 20 21 21 22 22 20 18 17 15 13 11 9 7 6 5 4 6 5 5 6
3 4 4 1 2 5 4 4 6 8 7 3 5 6 6 5 3 2 5 5 2 2 3 5 5 3 2 4 6 3 5 6 6 9 8 6 8 8 6 7 7 7 7 6 7 8 8 12 17 22 26 27 27 27 30 32 32 33 33 32 30 28 27 26 23 22 21 23 24 24 23 21 20 18 16 14 11 9 8 7 7 6 6 5 5 5
2 3 3 1 2 3 4 6 7 9 5 6 5 6 5 5 4 3 6 4 1 1 3 6 3 3 3 5 5 2 5 5 7 10 9 9 10 9 7 7 7 7 7 7 8 9 9 12 18 23 27 27 28 30 32 33 34 33 32 30 29 29 29 27 24 22 22 23 25 25 24 22 20 17 15 14 12 11 10 9 8 7 6 5 4 4
3 4 5 4 4 5 6 6 9 10 4 5 4 5 4 4 5 4 5 3 3 4 2 6 2 2 4 5 4 2 2 4 7 8 9 10 10 10 8 7 7 6 6 6 6 6 8 12 17 21 25 26 27 30 32 32 33 32 30 30 31 31 29 27 25 23 23 25 26 27 26 24 21 18 17 15 14 12 11 10 10 8 6 5 5 5
5 3 3 4 4 6 6 3 6 8 5 3 4 6 5 5 5 4 3 4 4 2 5 6 1 3 1 5 3 1 1 4 5 5 6 8 8 8 7 7 8 7 6 6 5 5 6 10 14 18 22 23 23 25 27 29 30 30 30 31 32 31 28 26 24 23 25 27 29 29 27 26 23 21 20 19 16 14 13 12 10 9 7 6 6 7
6 3 1 3 3 4 3 3 1 1 2 4 4 4 3 3 4 4 4 4 4 2 5 5 1 5 2 5 4 5 5 4 5 6 7 10 10 9 8 7 7 7 6 6 6 6 7 9 11 15 18 19 20 22 24 26 28 29 29 29 30 27 23 21 22 24 26 29 31 30 28 26 24 23 22 21 19 17 15 13 12 10 9 9 9 10
5 3 3 5 3 4 5 3 1 5 5 5 5 5 3 1 3 1 2 2 2 3 3 2 0 2 3 6 5 6 7 6 6 7 8 9 9 8 7 7 6 6 6 6 6 6 6 7 9 13 17 18 20 22 23 24 25 26 27 26 25 22 22 25 26 28 29 29 30 28 27 26 24 23 22 20 20 20 17 16 14 12 11 12 12 12
3 5 5 4 4 2 6 5 2 1 1 3 4 4 3 3 3 1 3 0 2 3 2 2 1 1 2 3 5 7 7 6 3 3 4 4 5 7 7 7 7 6 6 6 6 6 6 6 9 13 17 19 20 21 22 24 23 24 25 24 24 24 28 31 32 33 32 29 28 27 26 26 24 23 21 18 19 20 19 17 16 14 13 14 14 13
2 3 3 2 2 1 4 5 5 5 3 3 4 6 4 4 4 3 3 2 3 2 2 3 1 2 1 2 6 7 5 5 4 4 6 7 6 7 8 8 9 7 6 6 5 4 3 6 10 13 16 18 20 21 22 23 23 24 25 25 27 29 31 33 35 33 28 26 26 27 27 26 24 22 19 17 18 19 19 18 16 15 14 14 14 14
4 3 6 4 3 1 2 3 3 6 3 2 2 5 3 4 5 2 3 5 4 2 0 1 2 2 2 2 6 5 5 7 7 6 9 9 7 8 8 8 8 7 7 7 7 5 3 4 9 13 15 18 20 22 23 23 24 25 25 26 29 31 33 35 35 30 23 23 26 26 28 27 24 22 19 18 18 18 18 18 16 16 15 13 14 15
2 3 6 4 3 1 3 3 2 3 2 1 2 3 4 4 7 5 1 1 4 3 1 1 1 4 2 2 7 7 6 8 7 6 7 8 8 9 7 6 7 8 8 7 7 6 3 4 6 10 15 18 20 23 24 24 25 26 26 27 29 32 33 32 30 28 25 27 27 26 28 27 25 24 21 18 19 18 18 17 15 15 15 14 14 16
4 2 6 2 1 3 1 3 4 2 3 3 2 5 2 3 4 5 2 3 5 2 3 2 1 3 2 0 5 7 6 6 7 6 5 5 7 8 6 6 6 7 8 6 6 6 5 5 6 8 12 16 20 22 24 24 25 25 26 28 29 30 27 22 21 23 25 27 27 27 29 27 25 25 20 18 19 19 18 18 17 16 17 15 15 16
4 1 7 2 1 5 4 6 4 4 2 4 3 3 4 3 1 2 3 2 2 1 2 3 2 2 1 2 4 5 2 2 4 4 4 5 6 6 6 6 6 6 6 5 5 5 4 5 7 8 10 13 16 18 19 20 21 22 23 24 25 23 21 21 22 24 27 26 24 26 26 25 25 23 16 15 20 21 19 19 18 18 18 17 16 17
3 3 4 4 2 3 5 5 2 5 5 3 2 3 3 3 3 2 2 3 4 3 2 1 3 2 3 4 3 5 6 3 4 4 3 4 5 4 4 5 4 5 5 4 4 3 3 4 6 7 7 8 10 12 13 14 16 18 19 19 19 16 17 25 27 25 23 17 13 16 18 20 24 22 15 16 23 24 22 19 17 18 19 18 18 18
3 3 3 5 4 2 2 0 3 2 3 3 3 4 3 2 2 2 1 2 4 4 3 2 0 4 5 4 4 6 7 5 6 6 4 3 4 4 4 5 4 4 4 3 3 3 3 3 3 5 7 8 8 9 11 12 13 14 15 15 15 13 14 21 23 20 20 17 13 18 22 22 25 24 17 20 26 26 25 22 18 18 18 19 20 20
2 3 3 1 3 2 1 2 0 2 2 3 3 1 1 2 3 4 1 1 2 4 4 4 2 6 6 2 2 5 5 5 6 7 6 3 3 4 4 5 5 4 4 3 4 5 4 1 3 6 7 8 8 8 10 11 11 11 12 12 12 11 12 17 20 22 26 26 24 26 25 23 27 26 22 23 27 28 28 25 21 19 20 21 21 21
3 4 3 1 1 1 2 3 3 2 4 6 4 1 2 2 3 5 4 3 1 3 2 4 2 5 6 1 2 4 4 3 2 7 8 4 3 3 3 5 5 5 4 4 4 3 2 4 4 4 4 4 3 3 4 7 9 9 10 11 11 12 14 16 18 22 27 29 30 28 24 21 25 26 25 25 26 27 27 27 25 23 23 24 23 23
2 4 3 1 3 3 4 5 4 3 5 6 3 2 2 1 1 4 5 3 3 3 2 4 1 5 5 4 5 5 4 3 2 5 8 6 4 4 4 4 5 4 3 3 2 2 4 3 2 4 2 2 2 2 1 1 3 6 8 10 11 13 16 16 15 18 24 29 31 28 22 19 21 23 23 24 23 23 24 25 26 26 25 25 26 25
1 1 3 3 1 2 4 5 5 5 4 3 2 4 3 3 3 2 1 3 3 3 4 5 2 5 5 6 8 8 6 5 5 5 7 8 6 5 5 5 5 6 6 5 5 5 4 3 4 5 3 2 2 3 3 2 1 2 6 10 11 12 14 15 14 14 20 27 29 26 20 17 17 18 19 21 21 22 22 21 21 24 27 28 28 26
2 2 3 4 4 4 2 2 2 2 2 2 2 5 5 4 5 2 2 4 2 2 3 5 4 4 5 8 10 9 8 6 5 4 4 5 6 7 6 6 6 6 7 7 6 5 4 4 4 5 4 2 1 2 2 2 2 2 4 8 10 11 12 13 13 14 18 24 25 21 16 14 15 16 17 19 20 21 21 19 16 18 22 26 28 28
4 2 2 4 4 5 5 4 3 3 3 1 2 4 5 3 4 4 4 3 3 3 3 0 3 2 4 8 9 9 8 6 6 5 4 3 3 3 2 4 5 4 5 6 5 5 5 4 4 6 6 5 4 2 1 1 2 2 3 5 8 10 11 11 13 14 17 20 21 18 15 14 15 15 15 15 16 17 19 21 19 19 20 22 23 23
5 3 2 4 4 1 3 2 2 4 5 2 1 4 5 5 5 6 4 2 4 5 2 2 1 5 2 6 7 7 7 6 6 6 5 5 5 5 4 4 4 3 3 3 3 3 4 4 4 5 7 7 6 5 4 3 3 3 3 4 5 8 10 12 13 15 16 17 17 16 16 15 14 13 11 11 11 13 18 23 24 24 24 25 25 22
6 1 1 4 5 4 3 4 6 7 6 4 4 4 4 5 6 5 2 1 4 6 4 3 5 5 2 6 6 6 6 5 6 6 6 6 7 6 7 8 7 6 5 4 4 3 2 1 1 1 3 5 7 8 8 6 5 5 5 4 4 6 9 11 13 15 15 15 15 15 16 15 13 12 11 10 12 14 18 23 25 24 24 27 28 27
4 1 1 4 4 5 4 4 8 9 6 5 5 5 4 6 7 6 3 4 8 8 5 7 10 7 3 4 6 6 5 3 4 7 9 10 10 9 10 10 9 8 8 7 7 7 6 5 5 7 7 4 1 4 8 9 8 6 6 6 5 5 7 8 10 13 14 14 14 14 14 14 14 14 12 13 16 17 19 22 23 23 25 27 30 30
4 2 2 3 4 3 4 5 9 10 8 7 6 6 5 7 8 7 4 4 8 8 5 8 10 6 4 3 5 5 5 6 9 11 11 10 9 10 12 11 10 10 9 9 9 9 8 8 10 12 14 13 12 8 1 5 7 8 6 6 6 5 5 6 7 10 12 13 14 14 14 14 15 15 14 15 17 18 19 22 23 23 24 26 29 29
4 2 1 5 4 0 2 4 7 9 10 9 6 6 6 6 5 4 4 3 4 6 6 8 7 2 4 4 5 6 8 11 12 11 9 9 9 10 11 10 9 9 9 9 9 10 10 9 11 13 16 18 18 15 11 7 1 6 7 6 5 5 4 4 5 7 8 10 12 13 14 15 16 15 15 16 17 18 20 22 24 24 25 25 26 25
3 4 2 4 4 2 2 1 4 5 7 4 2 2 3 5 6 6 6 7 4 5 5 5 3 2 4 4 5 7 10 11 10 8 8 8 9 10 9 8 8 8 7 7 7 8 8 9 11 14 16 18 20 20 16 12 8 2 4 6 6 6 6 5 5 5 5 5 6 7 8 11 15 15 15 16 16 16 17 19 21 22 24 24 23 21
3 5 3 2 4 3 5 2 3 3 2 2 4 2 2 5 9 10 6 6 6 5 4 4 3 2 4 4 5 7 7 7 6 5 6 6 7 8 9 8 8 7 7 7 7 6 8 10 14 17 18 18 20 22 20 18 15 10 4 3 5 5 6 6 6 5 5 4 4 5 6 8 10 12 14 14 13 12 11 12 13 15 16 16 16 15
3 5 3 2 4 2 2 5 4 1 3 1 3 3 4 7 13 15 9 6 6 6 6 6 5 4 3 3 2 4 5 5 5 5 6 6 6 7 8 8 8 8 8 8 8 8 10 12 14 17 20 21 22 23 22 21 20 17 12 5 3 3 3 4 5 4 4 5 6 7 8 8 8 10 12 11 11 11 10 9 9 10 10 10 10 10
4 3 3 2 3 2 1 3 2 3 1 2 4 3 3 3 7 11 9 7 6 4 4 5 4 3 3 3 3 1 1 2 4 5 6 6 6 6 7 6 6 7 7 7 8 11 14 15 13 13 16 18 20 21 21 22 21 20 18 13 6 3 1 2 2 2 3 5 7 9 10 10 10 10 11 11 10 11 9 8 8 7 7 6 6 6
6 3 2 2 2 3 3 2 1 1 1 1 2 2 2 2 1 4 5 2 3 3 2 2 4 4 3 3 5 4 1 2 5 5 6 7 7 5 6 6 6 7 8 10 12 14 18 19 17 15 15 17 19 20 19 19 20 21 19 16 13 9 6 4 5 4 3 5 7 9 10 11 12 12 12 11 10 9 8 7 6 5 4 4 3 3
4 3 4 4 2 3 5 3 2 1 3 5 5 4 3 2 3 3 5 2 3 4 2 2 4 5 4 4 6 5 3 4 3 4 6 8 8 6 7 9 11 12 12 14 15 17 18 19 18 16 16 16 17 18 17 15 14 17 19 17 14 12 12 12 10 7 3 3 5 8 10 11 14 15 14 12 10 8 8 7 5 4 3 2 1 1
6 2 3 4 2 3 5 4 3 3 4 5 5 6 6 3 3 4 5 1 3 4 2 3 6 5 4 3 4 3 4 3 2 4 4 6 7 7 6 9 12 15 16 16 17 16 16 17 16 16 16 16 16 18 18 16 13 14 16 16 13 12 13 13 10 8 7 7 4 4 8 11 14 16 15 13 11 9 7 6 4 2 2 2 1 1
6 4 3 4 3 3 4 3 2 3 2 3 5 6 6 2 4 6 2 4 3 3 2 4 6 4 4 4 4 4 4 2 3 4 5 6 7 8 7 8 10 13 15 16 17 17 17 17 17 16 16 16 16 16 17 17 15 13 14 16 15 13 12 10 8 8 8 7 5 3 2 6 12 17 16 14 11 10 9 7 4 3 4 4 3 3
4 3 2 3 2 2 4 3 1 1 2 3 4 6 6 1 5 4 4 6 3 2 1 3 4 2 2 4 3 2 1 3 4 4 6 5 6 7 9 12 13 14 14 15 16 18 18 18 17 16 16 16 16 16 16 16 15 14 15 16 17 16 13 10 10 10 9 8 6 4 5 4 5 12 15 14 12 11 11 9 7 6 7 6 6 6
3 3 3 2 2 2 3 4 2 1 2 4 3 4 5 2 3 3 3 3 3 4 3 2 2 2 2 2 1 2 4 4 4 5 6 6 5 6 8 12 14 16 17 17 17 18 18 18 18 18 18 18 17 16 15 14 14 15 15 16 18 18 16 14 12 11 10 10 8 8 8 6 5 7 10 11 11 10 9 9 9 10 10 11 10 9
2 2 2 2 2 2 3 3 2 2 2 6 4 3 5 2 3 2 1 1 1 3 3 2 1 0 2 1 3 4 5 6 5 5 6 6 7 8 11 13 14 16 19 19 19 18 17 17 18 18 18 18 17 16 15 13 13 13 13 14 16 17 19 19 16 13 12 12 11 11 10 10 9 9 10 10 9 8 7 7 7 9 12 13 13 11
2 1 1 0 1 1 2 2 1 1 4 5 3 3 3 2 2 3 2 1 1 1 2 2 1 1 2 2 3 4 4 5 6 6 6 7 7 9 13 16 17 18 20 22 22 21 19 18 18 18 19 18 17 17 16 15 13 13 12 13 14 14 15 17 17 15 14 14 14 15 14 13 13 12 11 10 10 9 7 5 5 5 8 11 12 11
3 2 3 2 2 2 3 2 1 1 3 4 5 4 3 2 2 2 3 2 1 2 2 3 0 3 3 3 3 4 4 4 5 5 6 6 7 8 11 14 17 18 20 22 23 24 23 22 21 21 21 20 19 18 19 18 15 15 15 16 16 15 13 13 14 15 15 16 16 16 14 14 17 17 16 15 14 12 11 9 7 5 6 8 9 10
2 3 4 4 4 4 5 3 1 1 1 3 3 2 2 1 0 2 3 2 2 3 2 3 2 4 3 3 2 3 4 4 5 5 5 5 6 9 12 14 15 17 19 20 22 23 24 24 23 23 22 22 21 19 19 19 18 17 18 19 19 18 16 14 12 11 11 13 15 17 16 15 17 20 19 19 19 18 16 15 12 9 7 7 7 8
1 2 3 4 4 3 4 3 3 2 3 3 2 1 2 2 1 1 2 2 3 3 2 2 2 3 2 1 2 3 4 4 4 5 5 5 6 9 12 13 14 16 18 19 21 23 24 23 23 22 23 24 23 21 19 19 19 19 19 19 20 19 18 16 15 13 12 12 12 13 14 14 16 18 17 16 16 16 15 15 13 11 10 10 9 9
2 2 3 4 2 2 2 4 4 2 1 1 1 1 1 1 1 2 1 1 1 1 2 3 3 2 3 4 4 3 4 4 4 5 5 5 7 9 12 13 15 17 19 21 22 23 23 23 23 23 24 25 26 24 22 22 22 21 21 21 20 20 19 18 17 17 17 16 14 12 11 11 12 14 15 14 14 14 13 13 12 13 13 12 11 11
2 2 2 3 3 3 1 1 1 2 1 2 2 1 3 3 2 3 3 2 2 3 4 5 6 5 4 4 4 4 4 5 5 5 6 6 7 10 14 16 18 19 20 22 23 22 22 23 24 25 26 27 27 26 25 26 26 24 22 20 20 19 19 19 19 19 19 18 17 16 15 14 12 12 13 14 15 15 14 13 13 13 13 13 13 12
2 2 1 4 4 1 3 2 3 4 2 3 3 3 5 5 4 2 0 2 3 3 3 4 5 5 4 4 3 3 3 5 6 7 7 7 9 13 16 18 19 20 21 22 23 23 23 24 24 25 27 28 27 26 27 28 29 27 24 21 20 19 19 21 22 22 21 20 19 19 18 17 17 15 14 13 14 14 14 13 13 13 13 13 13 14
2 3 3 4 4 4 6 5 4 3 2 3 5 5 5 4 3 3 2 3 3 3 4 4 3 3 3 3 3 3 4 6 9 9 8 9 13 16 17 18 19 20 21 22 22 23 24 24 24 25 26 27 26 25 27 28 30 30 29 26 23 20 19 20 22 24 24 22 21 21 20 19 19 18 17 15 14 13 13 12 11 11 12 12 13 14
Wind_Direction
119 138 253 221 220 218 214 196 187 192 170 168 225 230 256 270 274 270 262 281 201 196 250 192 147 148 164 169 167 162 160 173 193 204 180 163 172 183 194 202 195 191 192 165 170 179 182 183 186 192 199 196 192 190 187 184 184 182 181 181 181 181 181 179 176 173 173 176 179 176 166 159 158 163 167 164 170 176 170 175 178 169 158 160 168 175
73 153 235 224 218 214 196 184 188 186 176 197 229 243 264 243 260 271 269 309 24 132 298 109 126 154 169 161 162 160 176 192 184 185 184 179 182 186 196 201 187 172 149 142 162 170 173 176 182 191 195 191 184 182 184 185 181 178 177 174 172 174 176 174 173 173 174 178 182 179 171 166 164 162 159 155 153 146 140 141 139 138 130 131 140 147
19 239 244 231 207 198 164 149 159 188 197 188 194 201 249 246 280 295 292 323 13 99 296 143 128 148 192 163 170 175 190 202 189 187 186 178 182 190 197 192 173 161 149 158 167 164 169 172 175 180 183 185 184 179 180 181 177 173 171 169 168 171 174 175 177 178 177 178 183 183 176 173 172 167 164 163 159 154 155 157 162 177 169 158 151 141
248 247 239 199 142 164 227 182 144 168 241 162 181 180 252 269 300 294 303 334 354 57 153 124 107 94 334 24 197 207 211 213 182 192 193 183 188 196 196 187 173 173 169 170 173 168 172 172 171 172 173 177 178 175 174 173 172 171 170 170 170 172 175 178 181 182 179 178 182 182 176 174 172 165 164 164 163 166 171 177 191 215 225 210 189 164
241 247 216 122 128 159 222 263 154 201 308 262 213 181 211 257 223 233 299 337 344 2 67 83 62 344 358 91 207 242 290 340 126 175 214 216 207 202 196 193 185 182 174 171 177 177 176 173 169 168 171 174 175 173 172 173 174 173 173 175 176 176 176 177 182 184 181 179 181 178 171 170 166 160 162 166 167 172 180 190 203 222 223 207 199 186
254 256 187 171 181 150 181 241 205 182 217 291 242 202 197 203 230 265 333 15 23 4 356 61 66 302 319 241 214 241 247 236 167 183 213 212 206 206 194 195 193 192 192 184 184 178 169 165 163 167 173 176 178 177 174 175 178 177 178 179 179 176 175 178 183 186 187 186 186 181 175 175 173 167 171 178 177 177 184 193 202 200 176 175 186 182
262 282 122 220 216 153 168 234 226 175 151 288 239 201 179 154 196 284 26 66 79 314 314 49 112 234 311 283 245 244 200 213 199 201 215 199 203 218 202 194 188 186 199 203 195 179 166 164 162 168 177 180 183 181 176 177 179 179 180 181 179 176 176 181 184 187 190 190 189 188 186 187 187 180 179 185 186 181 180 179 180 169 149 148 162 164
245 316 3 300 184 147 167 231 222 159 133 239 228 151 128 130 169 215 103 100 184 217 325 9 95 134 310 260 263 272 171 205 222 212 218 207 208 218 208 196 186 181 184 188 193 184 174 174 170 172 179 183 184 181 178 178 179 181 182 180 178 177 178 184 187 188 191 190 188 188 189 189 191 188 181 182 184 178 173 170 167 164 153 143 143 147
230 295 303 187 134 154 198 214 185 147 144 245 212 136 129 139 151 130 97 95 344 65 330 326 46 102 276 270 289 313 153 199 234 221 217 213 211 212 206 195 185 182 181 183 191 187 180 181 178 177 179 183 184 182 182 182 182 183 182 179 179 181 183 187 190 189 190 192 188 187 188 186 187 187 177 175 178 173 171 170 166 165 160 149 141 138
247 235 217 155 148 200 223 217 170 154 186 235 161 105 74 83 84 75 87 92 32 51 243 283 349 114 267 290 314 343 134 195 239 242 223 215 216 208 195 186 179 173 174 180 187 189 185 184 181 179 180 184 187 186 185 185 186 184 182 182 183 185 187 190 191 190 190 191 189 188 187 183 181 178 170 169 173 172 174 175 170 168 164 157 151 146
287 282 177 152 181 205 209 199 169 170 186 167 96 63 47 40 41 48 56 81 62 4 253 259 276 119 260 288 267 245 201 187 222 267 244 217 220 211 188 178 176 170 170 167 158 157 164 171 177 178 180 184 188 189 188 188 188 187 185 185 186 188 190 190 191 193 194 193 192 191 188 184 179 174 170 170 175 178 180 181 178 177 173 163 156 153
329 335 223 248 217 162 138 136 136 25 57 93 81 72 81 10 17 32 356 44 91 265 262 257 253 104 153 263 256 251 263 221 201 235 234 209 203 200 184 170 168 164 160 151 142 143 144 152 168 175 178 181 186 190 192 192 191 190 189 188 186 185 183 182 184 189 192 193 193 193 191 186 181 177 174 174 180 185 185 187 187 187 184 172 162 160
317 252 274 304 254 140 115 137 331 6 34 80 81 72 90 18 16 29 310 15 154 234 252 258 355 101 211 245 260 268 276 273 234 222 222 210 196 183 163 149 142 139 144 144 140 147 153 154 164 171 176 181 186 192 195 196 195 193 191 189 181 174 178 183 185 187 191 192 193 194 193 189 185 181 177 177 184 187 189 192 194 195 189 179 171 168
300 300 324 326 284 175 134 150 208 300 78 131 129 111 122 107 77 239 262 319 230 238 264 297 281 235 266 283 284 281 291 306 284 208 173 164 157 143 128 118 111 109 123 134 136 152 167 168 168 174 179 184 187 192 197 199 198 195 191 186 177 175 185 189 187 186 189 191 193 196 197 192 187 184 179 180 188 190 191 195 198 200 194 184 179 176
146 313 293 206 266 279 161 175 171 156 149 182 164 129 139 154 143 201 219 177 206 230 301 310 264 173 176 311 300 294 319 10 37 62 84 88 98 111 108 104 106 104 105 106 105 115 139 163 175 181 182 185 188 193 199 200 199 196 190 184 180 182 188 189 187 184 185 192 194 196 199 194 189 188 184 185 191 192 194 197 201 202 196 189 184 181
132 238 255 253 266 192 215 241 141 119 121 236 147 108 146 186 148 140 177 169 170 147 330 261 221 207 193 287 325 352 19 28 37 52 77 86 87 96 97 99 105 103 100 101 94 81 72 145 177 186 185 187 190 195 200 200 199 197 189 184 185 188 189 189 186 175 177 200 202 198 199 195 189 189 186 189 194 196 198 200 204 204 199 195 189 185
124 250 277 310 320 182 196 215 102 102 177 208 134 158 215 174 121 107 142 89 79 102 253 250 261 306 341 341 341 8 27 24 22 31 70 90 94 93 94 98 106 109 109 109 111 119 131 136 157 181 186 189 193 196 201 201 201 198 190 186 188 191 191 188 179 170 180 204 206 200 199 194 190 190 188 192 197 199 203 205 209 210 205 203 197 191
146 243 287 334 22 299 248 113 68 56 124 117 181 197 170 72 96 104 104 18 46 118 270 344 339 316 31 37 327 359 23 31 22 5 23 70 94 98 96 97 102 109 113 113 115 124 135 127 131 159 179 192 198 201 203 203 204 201 194 192 192 192 188 173 164 174 192 205 203 200 199 194 193 192 189 197 202 203 206 208 212 215 211 208 204 197
124 165 288 288 189 294 349 69 43 340 68 127 195 186 99 100 170 93 111 127 94 167 275 353 350 315 139 215 311 344 330 48 60 30 20 44 73 90 94 97 98 99 103 106 109 117 130 137 142 150 168 191 202 207 209 206 204 201 195 195 194 191 180 169 176 193 202 201 197 196 194 191 195 193 188 202 210 208 209 211 215 218 215 213 209 203
97 133 268 282 246 304 6 54 41 314 335 32 36 9 50 126 158 147 138 145 139 163 206 11 3 304 225 221 247 273 269 236 159 149 89 55 57 67 72 75 82 96 104 108 116 127 134 135 144 150 164 189 199 204 209 208 207 202 196 195 196 195 186 183 191 199 201 196 189 192 194 195 197 193 188 207 215 214 213 213 217 221 220 217 214 209
61 113 210 281 322 19 18 57 161 200 324 7 29 5 1 46 109 131 97 95 128 141 164 152 52 273 253 213 213 259 274 249 202 166 121 101 100 92 85 73 57 57 72 93 112 100 72 88 144 173 188 199 198 196 197 201 205 203 202 203 204 205 194 188 189 194 201 206 206 205 207 207 201 194 198 213 217 217 217 216 216 221 225 223 219 215
91 126 164 298 3 71 197 285 81 166 154 115 101 24 122 146 124 119 116 314 107 125 158 154 158 264 263 197 223 268 275 249 205 145 118 108 107 101 98 96 81 56 37 43 60 46 20 325 211 194 192 191 189 191 195 199 203 204 206 210 211 204 188 183 184 190 200 205 204 205 209 209 202 201 207 213 216 217 218 219 217 218 225 227 222 220
127 104 105 70 338 192 242 323 12 91 113 99 91 96 131 138 101 120 175 229 96 100 134 115 115 260 268 325 329 301 308 288 210 141 130 117 91 84 76 77 76 64 44 40 43 26 308 248 209 173 169 169 161 173 194 204 211 213 209 207 206 198 187 182 182 188 195 196 194 198 206 209 206 207 207 207 214 219 220 222 222 220 225 228 226 224
79 83 86 22 311 317 319 329 0 51 74 67 32 25 75 53 89 139 173 175 131 141 131 86 76 259 282 339 356 344 353 8 39 114 124 123 109 102 103 100 101 104 105 104 127 202 213 201 127 90 79 36 24 19 13 218 210 204 198 196 195 192 192 190 185 184 188 188 190 198 207 211 209 210 208 205 213 220 221 226 228 225 226 229 229 228
24 92 103 92 24 355 349 338 348 3 33 59 345 331 5 46 61 95 120 77 105 175 150 115 173 251 287 353 13 3 7 52 70 87 118 129 133 136 138 141 146 151 156 158 169 182 173 129 84 72 63 22 351 354 12 33 76 163 180 189 192 193 196 195 188 182 181 182 188 198 208 210 208 211 212 210 214 218 219 227 235 233 229 228 228 228
98 112 112 124 158 173 191 256 253 290 357 20 336 340 0 34 45 66 87 72 109 176 117 122 182 240 315 359 12 3 4 31 41 54 101 124 137 148 153 156 162 163 159 162 167 166 153 130 119 120 127 156 233 326 7 41 73 113 163 185 196 202 202 195 188 184 182 183 190 197 203 204 205 210 214 216 218 217 218 227 245 250 241 233 229 227
88 55 83 120 146 172 183 208 211 146 92 67 313 346 352 5 47 80 88 99 163 135 66 50 176 120 357 352 0 359 4 10 360 3 22 28 45 74 109 133 141 144 153 164 163 156 152 147 145 146 149 159 171 166 119 81 91 117 155 180 197 206 203 193 190 191 187 188 195 199 197 199 206 212 216 218 218 220 223 230 244 258 259 252 243 236
90 40 48 85 63 89 160 137 83 90 93 98 33 2 345 352 48 81 94 134 144 115 79 296 108 96 25 342 352 349 354 4 360 359 2 0 6 12 20 47 66 78 109 131 137 148 153 156 167 169 162 157 156 158 158 153 151 151 161 181 198 205 200 190 188 192 191 190 193 195 196 203 208 207 206 209 210 217 224 229 236 246 252 254 254 252
106 107 164 93 60 48 78 96 95 91 81 65 51 30 4 16 60 91 102 45 105 122 153 156 98 88 7 337 342 339 343 354 360 5 15 18 14 17 29 33 27 24 35 39 25 12 19 13 289 232 186 172 162 159 158 155 155 155 158 175 192 201 200 196 190 190 191 191 192 195 201 203 193 183 190 204 204 208 219 223 227 233 239 243 246 246
109 165 191 118 93 66 59 98 107 99 86 59 32 26 51 65 71 79 63 56 82 97 123 114 91 69 9 331 330 332 333 345 24 32 34 31 25 28 39 37 27 21 24 28 25 19 18 14 7 3 354 340 291 170 159 153 155 158 159 166 178 196 207 209 204 197 197 196 190 192 199 197 187 184 191 198 196 198 208 213 216 222 229 233 236 236
95 153 191 100 86 49 32 76 96 99 101 84 41 16 48 69 57 45 33 51 79 88 95 95 84 56 358 347 342 340 0 36 45 40 36 33 29 36 43 39 35 32 27 26 30 29 29 30 28 21 12 4 352 336 319 143 149 157 161 161 164 174 194 211 214 210 209 206 195 193 199 198 195 194 191 191 195 197 201 205 209 214 218 223 227 229
73 115 65 67 93 187 12 91 109 102 91 75 40 6 21 58 67 53 29 26 96 127 106 82 82 27 312 337 358 14 40 49 44 35 33 32 30 39 45 39 37 38 33 30 32 33 32 30 31 30 24 20 14 3 352 344 9 152 151 155 161 161 168 194 209 212 217 215 207 207 210 206 204 204 200 200 206 209 210 212 213 214 217 222 225 224
85 117 114 87 121 221 302 111 134 102 77 53 328 341 52 94 107 90 48 25 45 119 114 102 134 228 305 353 32 38 45 50 45 35 32 30 29 36 41 37 33 33 34 34 32 33 31 22 22 26 25 24 24 21 15 3 351 350 140 141 145 151 157 167 178 187 198 203 201 203 205 203 205 209 209 207 209 213 216 219 220 220 222 226 228 227
65 101 129 114 125 214 284 347 59 71 116 244 273 256 165 133 110 95 64 26 30 63 96 111 111 46 2 25 55 58 53 50 46 40 38 40 38 36 35 33 29 26 26 30 30 28 27 21 15 13 12 12 13 14 16 19 15 1 343 158 149 144 154 165 168 170 176 184 193 192 184 185 191 194 193 194 196 196 196 202 207 211 214 218 222 225
80 89 120 98 106 165 309 30 51 248 215 217 2 51 119 119 105 96 78 38 34 52 72 75 58 30 16 23 55 88 83 62 45 36 32 33 38 42 37 29 25 25 21 21 19 11 12 17 16 13 11 7 5 6 5 8 14 14 6 345 225 188 161 172 178 178 187 203 218 220 210 199 190 184 182 183 184 182 179 180 181 183 188 196 202 208
126 118 133 105 102 144 80 70 143 227 236 35 7 36 114 109 90 86 65 24 11 27 58 71 54 11 358 357 334 272 133 57 40 34 23 17 22 39 41 29 22 24 20 18 17 9 8 10 10 13 13 6 5 7 2 356 358 4 8 7 343 294 283 257 245 247 238 221 212 210 210 208 202 192 184 181 179 177 175 175 174 172 174 176 178 183
136 128 131 126 133 143 118 100 121 45 63 179 271 257 200 269 328 105 99 34 352 357 9 70 59 27 10 350 324 306 310 37 28 14 3 2 3 9 18 13 8 10 10 12 13 12 13 14 13 11 7 2 3 4 358 351 346 346 354 4 6 9 23 19 2 342 284 246 220 207 201 200 201 197 188 182 183 187 186 182 180 178 173 164 156 155
114 144 167 173 187 115 102 96 91 115 215 219 239 266 272 278 264 147 120 100 345 343 330 119 82 50 42 10 335 331 44 55 10 330 336 348 348 348 355 357 357 359 1 2 5 7 10 12 13 11 4 360 0 0 357 350 342 338 338 341 349 2 6 3 4 8 348 281 239 227 219 207 199 195 193 195 198 196 190 181 178 182 184 191 193 145
42 54 117 129 151 120 117 135 166 187 221 233 244 275 296 271 214 106 83 58 312 331 342 104 87 59 60 46 357 15 66 60 297 289 320 339 338 334 338 346 352 355 357 358 1 4 5 5 4 2 1 359 355 354 353 348 339 334 329 327 330 336 335 333 341 1 7 3 347 263 241 229 214 203 200 203 204 197 185 173 170 199 237 259 258 242
27 21 53 114 161 151 131 138 168 190 225 256 251 277 304 281 132 100 93 240 248 321 340 87 87 58 54 58 44 59 85 134 244 288 318 328 325 326 333 341 345 345 346 348 350 350 351 352 353 352 353 356 354 351 351 347 339 330 324 323 322 319 316 304 297 309 314 313 329 348 299 248 228 219 213 208 204 199 193 185 185 232 255 258 261 269
16 11 48 123 126 92 113 114 81 231 260 292 282 298 325 19 126 132 214 222 193 206 234 110 109 108 75 70 67 82 164 210 235 278 301 310 314 318 326 331 331 330 331 333 335 337 337 337 340 339 336 338 342 344 347 346 337 323 314 311 307 306 308 301 292 296 291 274 269 286 308 309 236 218 215 211 209 208 206 204 212 233 244 241 240 248
10 5 19 61 47 44 102 108 93 211 306 331 317 332 357 51 164 192 218 193 152 170 180 122 122 171 138 103 124 228 258 277 283 289 301 308 306 303 309 318 321 323 325 325 326 329 331 328 327 325 322 324 327 329 335 340 335 325 315 305 299 299 304 304 297 293 290 280 261 241 239 237 210 198 200 201 202 204 206 213 223 231 233 230 230 232
36 35 17 22 25 38 67 77 107 159 322 333 332 356 17 65 156 149 113 94 136 156 151 109 45 161 161 219 287 277 284 303 308 306 311 313 310 313 317 320 322 320 322 324 323 323 323 320 318 318 317 317 317 316 320 324 323 323 320 311 304 301 299 298 295 288 283 277 259 236 227 228 219 204 197 197 197 197 197 200 210 222 227 225 223 220
21 76 161 276 1 48 83 86 115 223 304 337 35 85 59 54 116 125 118 41 331 179 146 110 14 277 187 196 275 287 287 297 303 309 314 313 314 318 321 323 326 325 324 324 323 324 322 313 308 311 312 311 310 307 307 308 306 305 306 308 310 308 301 296 293 286 280 273 259 247 244 242 234 224 217 213 208 206 208 206 203 212 220 220 218 215
25 99 128 94 47 70 106 122 136 268 319 12 61 101 108 47 44 126 140 138 213 218 168 127 210 277 225 194 246 277 270 279 294 302 306 308 310 315 318 321 324 326 327 326 327 329 327 320 314 312 308 307 305 301 300 301 295 286 286 292 299 304 305 303 298 288 279 273 264 257 253 241 230 229 232 232 232 239 247 252 252 244 231 226 225 223
56 96 94 92 102 89 79 96 132 115 73 60 57 70 95 82 67 143 138 158 213 218 200 171 211 258 239 196 234 272 267 281 302 307 308 313 313 315 320 322 325 330 331 330 330 329 327 325 322 318 313 309 306 302 300 298 289 280 280 285 288 290 294 295 294 292 285 275 264 260 259 246 228 223 223 224 229 236 240 241 245 246 241 243 245 242
339 76 82 106 135 117 103 151 184 161 141 143 114 48 27 9 330 157 153 193 213 220 234 233 246 277 293 17 357 311 296 321 342 330 321 322 317 316 318 317 319 323 322 320 320 320 319 319 317 315 313 309 307 307 307 301 292 284 283 284 284 284 284 280 276 280 286 285 274 263 257 245 231 226 224 220 217 216 215 218 224 228 232 238 244 243
331 51 83 105 112 96 135 187 198 172 152 98 89 139 234 357 347 309 278 247 243 310 334 358 16 14 22 31 25 10 351 349 349 331 319 316 309 308 310 309 310 313 313 312 312 312 311 310 307 305 304 302 302 306 307 302 297 292 289 287 285 283 278 269 265 267 271 274 276 274 269 257 242 235 236 234 227 221 218 220 225 230 235 240 243 243
10 46 106 107 71 43 349 263 148 134 285 338 24 251 240 222 217 262 297 335 8 8 23 41 49 60 71 62 43 25 358 332 319 312 307 306 305 305 305 306 307 308 307 308 308 307 304 302 300 298 296 294 295 298 298 296 295 293 291 289 285 282 277 272 267 264 262 262 264 266 268 270 266 256 247 241 237 234 231 231 232 236 239 241 243 246
55 67 101 93 91 148 250 220 151 151 216 236 204 218 243 231 210 213 274 42 46 55 76 67 52 50 61 59 34 10 339 312 308 308 300 294 297 300 302 304 304 303 304 305 305 303 300 297 296 294 292 292 293 293 291 289 289 287 287 286 284 283 282 277 270 264 260 258 256 256 258 261 265 266 262 252 241 231 224 223 225 227 230 232 235 237
123 156 158 131 147 209 226 209 172 148 183 214 203 212 236 231 190 147 123 107 104 117 127 111 73 26 358 341 327 318 306 302 308 311 302 296 300 301 302 303 301 301 304 305 303 301 299 298 296 294 293 294 295 293 288 286 284 283 283 283 282 283 284 281 271 262 257 255 254 253 252 252 254 256 256 252 240 224 212 208 210 216 222 226 228 228
Height
750 757 763 763 762 759 758 759 759 760 763 765 767 767 767 768 763 753 745 737 738 745 745 745 746 749 755 756 754 755 757 760 763 763 763 762 765 767 769 769 768 768 767 767 767 768 771 773 775 777 778 779 781 783 784 785 786 787 788 789 791 794 795 796 797 798 799 800 801 802 803 804 805 806 806 807 807 807 807 808 808 809 810 811 811 811
753 763 763 756 755 755 758 762 762 762 764 765 766 766 767 767 758 746 742 739 738 745 748 746 746 751 755 755 754 755 757 759 760 763 763 763 765 766 767 768 767 768 768 769 769 770 771 772 774 775 776 778 779 781 783 785 786 787 788 789 791 793 795 796 797 798 798 800 801 802 803 804 805 806 807 808 808 808 808 808 809 809 810 811 811 811
762 763 756 751 755 759 761 762 763 763 764 765 767 767 766 762 755 745 740 740 739 743 748 746 747 754 757 756 754 753 753 753 755 757 757 760 764 765 765 766 767 768 769 770 770 771 772 772 773 774 775 777 779 780 782 784 786 787 788 789 791 792 794 795 796 798 799 800 801 802 803 804 805 806 807 808 809 809 809 809 810 810 810 811 812 812
767 758 749 751 755 757 758 758 760 762 763 764 764 764 762 758 758 752 743 741 741 743 746 742 746 756 758 757 756 752 750 751 753 756 757 758 760 761 761 762 764 766 768 769 770 771 772 772 773 774 775 777 779 781 782 783 785 787 788 789 790 792 794 795 796 798 799 800 802 803 803 804 805 806 807 808 809 810 810 810 811 810 811 811 812 812
760 749 746 751 752 753 754 755 758 758 760 761 759 758 755 753 754 754 751 746 741 744 745 742 749 757 756 759 760 754 752 753 755 759 760 759 760 761 761 761 762 763 764 767 767 768 770 771 772 774 776 778 779 780 781 783 785 785 787 788 790 792 793 795 796 797 799 800 802 803 804 805 806 806 807 808 809 810 811 811 811 811 811 811 812 813
752 744 745 748 750 752 754 755 755 755 759 759 754 749 748 749 750 751 754 751 748 752 751 750 761 767 761 758 757 756 756 756 757 760 759 760 761 762 762 762 763 764 765 765 765 766 768 770 772 774 776 778 779 780 780 783 784 785 787 788 790 791 793 794 796 797 799 800 801 802 803 804 805 805 806 807 809 810 811 812 812 812 811 812 812 813
747 740 740 744 748 752 755 756 753 753 760 758 749 744 745 748 749 751 752 753 758 761 757 755 763 771 768 757 753 756 758 758 759 760 759 760 761 761 761 761 762 765 767 767 767 768 769 770 771 772 775 777 779 780 781 783 785 785 787 788 789 791 792 794 795 797 799 800 801 802 803 804 805 805 805 807 809 810 811 812 813 813 813 813 813 814
744 740 740 744 748 753 756 755 751 751 756 754 746 744 745 745 748 751 750 753 759 760 758 757 758 766 769 760 757 759 759 762 762 760 760 759 758 759 759 760 761 763 765 767 768 769 770 770 769 770 773 776 778 781 782 783 784 786 786 787 788 790 792 794 795 797 798 800 801 803 804 805 806 806 806 808 809 811 812 813 813 814 814 814 814 814
744 741 740 744 749 753 750 745 745 747 748 745 743 746 744 743 749 751 750 753 760 761 761 761 760 768 771 761 759 760 757 761 762 758 758 756 754 755 756 758 760 762 764 765 767 769 770 770 769 770 772 775 778 779 780 781 783 785 786 786 787 789 791 793 795 797 799 801 802 804 805 806 808 809 808 808 810 811 812 813 814 815 815 815 815 815
741 738 736 741 747 747 739 736 740 741 741 740 741 746 746 748 754 756 756 754 759 766 767 766 765 772 775 760 755 757 754 755 757 753 754 753 751 752 754 757 759 762 764 764 766 769 771 771 771 771 773 775 777 778 779 781 783 784 784 785 786 788 791 793 796 798 800 802 803 804 805 806 808 809 808 809 810 811 812 813 814 815 816 816 816 816
739 735 735 737 738 736 731 736 741 737 737 739 740 745 748 754 756 760 764 760 766 776 772 771 770 771 778 766 754 755 751 751 752 748 749 751 750 751 753 755 757 760 762 764 766 770 772 773 773 773 774 775 777 779 780 781 782 783 783 784 785 788 791 794 796 798 800 801 802 803 804 805 807 808 808 809 810 811 812 814 815 816 817 817 817 817
740 736 736 732 729 730 729 735 742 739 739 741 743 748 753 761 763 764 769 767 777 784 774 775 775 771 778 769 755 753 749 750 753 746 743 745 746 748 751 753 755 758 761 763 765 769 772 773 774 774 775 776 777 778 780 780 781 782 783 784 786 789 792 794 797 799 800 801 801 802 803 804 806 806 806 808 810 811 812 814 815 816 817 818 818 819
742 736 736 731 726 727 731 738 742 741 743 743 746 754 762 773 777 776 781 781 782 782 775 777 776 773 775 764 753 753 749 750 754 748 743 743 744 745 749 752 755 758 761 762 765 769 771 772 773 774 775 775 776 777 779 779 780 781 782 784 787 789 790 791 793 794 795 798 801 802 803 804 805 806 806 807 810 811 812 814 815 816 817 818 818 819
747 741 736 733 729 725 729 739 744 744 745 744 745 755 766 779 786 790 796 796 788 779 776 779 776 773 773 763 756 756 753 752 753 748 745 746 747 748 749 753 756 759 761 762 765 768 770 772 772 773 774 774 775 776 777 778 779 781 782 784 786 787 787 787 787 788 790 795 799 801 802 803 804 805 805 807 810 811 813 814 815 816 817 817 819 820
756 752 740 735 732 728 727 731 735 737 741 745 745 749 759 767 774 783 787 786 784 780 779 779 775 773 772 768 763 759 757 756 753 750 749 749 751 751 751 754 756 760 762 763 767 769 771 772 772 774 774 774 775 775 776 778 779 780 781 783 784 784 784 784 785 787 792 797 798 800 801 802 803 805 806 807 810 812 813 814 815 816 817 818 819 821
759 754 737 732 732 729 730 728 727 731 740 750 750 749 754 753 756 772 783 781 779 780 780 779 775 773 771 766 762 760 759 758 756 754 752 753 754 754 755 757 759 761 763 764 768 771 772 772 773 774 774 773 774 774 775 776 778 779 780 782 782 782 781 783 785 788 794 798 798 798 800 800 802 804 806 809 811 812 813 814 815 817 818 819 820 821
757 751 736 732 731 727 729 728 727 732 740 749 751 748 750 748 748 766 785 787 782 779 782 784 777 772 772 767 760 759 760 760 761 760 758 757 757 757 759 761 761 762 765 767 768 769 772 772 772 773 773 773 773 773 774 775 776 778 780 781 781 781 782 784 786 789 793 795 796 798 800 801 802 804 806 810 811 812 813 815 816 817 819 820 822 822
748 748 741 735 734 728 726 726 726 730 736 745 748 744 747 752 750 758 776 788 790 786 785 787 783 779 780 776 766 761 762 763 765 766 765 763 760 761 764 764 764 765 766 769 768 768 770 770 771 772 772 773 773 773 774 775 777 778 780 781 781 782 785 788 791 794 795 795 797 799 799 801 804 805 807 810 812 812 813 815 816 818 819 821 822 823
743 748 744 738 737 731 725 727 733 733 732 738 743 739 743 754 756 760 772 783 791 794 791 789 791 788 783 779 772 766 765 765 767 769 769 768 767 767 768 768 769 768 768 769 769 769 770 770 770 771 771 772 773 774 775 776 777 779 781 782 783 785 787 789 792 794 795 797 799 800 800 802 805 808 810 812 813 813 813 815 816 817 819 821 822 823
743 750 748 739 737 735 731 736 746 745 735 734 739 740 743 751 756 761 768 773 779 792 797 793 793 789 779 776 773 769 769 768 767 769 770 772 773 772 772 773 773 772 772 772 772 772 771 770 770 770 771 772 773 775 776 777 778 780 782 784 785 787 787 788 791 794 798 801 804 804 804 805 806 809 811 813 814 813 813 815 816 817 819 820 822 823
744 751 751 742 737 742 744 745 750 750 745 742 745 748 751 756 759 761 768 773 771 780 792 794 795 789 775 771 772 770 770 770 768 768 770 773 774 773 774 774 775 776 776 775 774 773 772 770 771 771 772 773 774 775 776 777 779 780 782 784 785 787 788 789 793 796 799 802 803 804 803 803 806 808 808 810 812 813 813 815 816 817 819 820 821 822
743 748 750 748 746 749 751 746 745 746 748 750 752 757 761 760 760 762 772 779 772 773 784 787 791 787 770 767 772 771 771 771 768 767 770 773 774 774 774 773 775 778 779 777 775 774 775 775 775 775 775 775 775 776 777 777 779 780 782 784 786 788 789 791 792 794 795 797 799 801 801 802 805 806 806 807 810 812 813 814 815 817 819 820 821 822
742 745 749 754 756 756 753 749 748 747 747 749 753 760 763 760 758 759 768 774 774 779 784 783 787 782 768 768 772 770 771 772 770 768 769 774 776 776 776 775 776 779 780 781 780 780 782 782 780 778 776 776 776 776 777 778 779 781 782 784 786 787 789 790 791 792 794 796 798 799 800 801 804 805 805 806 808 811 812 814 815 816 818 819 820 822
741 747 752 758 761 757 752 749 748 747 748 752 756 760 762 762 761 761 765 767 771 779 781 782 790 783 770 771 773 770 773 774 773 772 772 777 779 778 779 778 779 781 783 784 786 786 786 783 780 777 776 776 777 777 778 778 779 781 782 784 785 786 788 788 790 792 793 795 797 798 800 801 803 805 806 806 808 810 813 814 815 816 817 818 820 822
743 752 755 759 767 767 762 758 754 750 753 759 764 763 762 762 762 764 768 767 769 779 778 778 790 786 775 776 775 774 777 776 776 778 778 779 781 781 782 782 783 785 786 786 787 787 786 783 780 778 777 777 778 779 780 780 780 781 782 784 785 786 787 788 790 791 792 794 796 798 799 801 803 805 806 806 807 809 811 814 816 817 817 818 819 821
746 757 756 756 765 771 771 769 764 761 763 767 768 765 764 764 761 761 765 765 769 781 780 777 786 786 779 781 782 783 785 781 780 782 781 781 781 782 783 784 786 786 786 786 786 785 784 782 780 779 778 778 779 780 781 781 782 782 782 783 784 785 787 788 790 791 792 793 795 797 799 801 802 803 804 805 805 807 809 812 815 818 818 818 818 819
750 762 761 756 758 762 765 766 763 762 766 769 768 766 766 768 765 762 765 767 771 779 782 781 784 786 786 790 792 792 792 789 787 785 784 784 784 784 785 785 786 786 786 785 784 783 783 782 781 781 780 780 780 781 781 782 783 783 783 783 784 786 787 789 790 790 791 793 794 796 798 799 800 801 802 803 804 807 809 810 813 817 820 821 820 820
750 761 764 764 763 763 763 763 762 763 769 774 772 769 769 769 765 761 765 772 773 774 783 789 787 788 794 799 799 799 797 795 793 791 790 789 789 788 788 787 787 787 786 786 786 784 783 783 783 783 782 782 783 783 783 783 784 784 784 784 785 786 788 789 789 790 791 792 794 795 796 797 798 800 801 802 803 806 809 810 811 815 818 820 821 822
750 760 764 767 770 771 769 766 767 770 778 784 782 777 774 772 768 766 772 781 776 772 784 795 793 795 802 806 805 803 801 800 799 798 796 794 794 793 791 790 790 789 788 788 788 787 787 787 786 786 785 785 784 784 784 785 785 785 785 785 785 787 788 789 790 790 791 792 793 794 795 796 797 799 800 801 801 803 806 809 811 813 816 817 819 820
753 762 764 765 770 775 775 772 770 773 781 788 788 787 784 782 781 780 785 791 787 787 799 802 799 805 811 811 809 805 803 803 801 800 799 798 799 797 795 796 796 795 794 793 792 791 790 790 790 789 789 789 788 788 787 786 787 787 787 787 787 787 788 789 790 791 791 792 793 794 795 796 797 797 798 799 799 800 803 806 808 810 812 814 816 816
751 762 765 763 768 775 777 774 773 776 782 786 788 792 789 784 786 789 793 796 794 801 808 802 798 807 811 811 811 808 804 802 801 801 803 803 803 801 799 800 801 800 800 799 797 796 794 794 793 793 793 793 793 793 791 790 789 789 789 789 789 789 789 790 790 791 791 792 793 794 795 796 796 796 797 798 800 800 801 804 806 807 809 811 812 813
749 762 766 763 768 776 777 778 778 778 780 784 789 794 792 787 791 799 805 804 799 801 803 798 801 811 811 810 812 809 805 804 805 806 807 806 806 804 803 804 803 803 803 802 801 800 799 798 797 797 796 795 795 795 795 794 792 791 791 790 790 790 790 790 791 791 792 793 794 794 795 795 796 796 798 799 800 801 801 803 804 805 807 808 810 814
754 759 763 765 770 776 779 781 779 775 776 785 794 799 801 800 801 806 811 813 809 805 802 802 808 814 814 812 813 812 810 809 810 810 810 809 809 808 807 807 806 806 805 804 803 802 802 802 801 800 799 798 797 797 797 796 795 794 793 792 792 792 792 792 791 791 792 792 794 795 795 796 797 797 798 799 800 801 801 802 803 804 806 807 810 814
758 756 763 769 769 774 781 781 779 776 780 793 801 801 801 802 802 807 815 818 815 811 810 811 815 815 814 814 815 815 814 813 814 814 812 812 811 810 810 810 809 808 807 806 805 804 803 803 803 802 801 799 798 798 798 797 796 796 796 795 794 794 793 793 793 792 792 792 793 794 795 796 797 798 799 800 800 801 802 802 803 804 806 808 810 812
758 758 767 773 772 778 785 780 778 784 792 802 807 804 802 804 805 808 817 820 817 815 815 815 816 816 815 815 815 816 816 815 815 815 813 813 813 812 811 811 810 810 809 808 807 806 805 804 804 803 802 800 799 799 799 798 797 796 796 795 795 795 794 795 794 794 794 793 793 794 795 796 797 798 800 800 801 802 802 803 804 805 806 808 809 811
757 760 767 774 778 783 784 780 784 795 804 807 808 807 806 806 803 803 812 819 818 818 817 815 818 819 817 816 815 815 816 816 815 815 815 814 814 813 813 813 812 811 811 810 809 808 806 806 805 804 803 801 801 800 800 799 798 797 797 796 796 795 795 795 795 795 795 795 794 794 795 796 797 798 799 800 801 802 803 803 804 805 806 807 808 809
758 760 763 770 780 784 786 796 807 811 812 810 806 806 806 804 801 802 812 821 820 819 820 818 819 820 818 816 816 816 817 815 814 814 815 815 815 815 814 813 813 812 812 811 810 809 808 807 806 806 804 803 802 801 801 800 799 798 798 797 797 796 795 794 794 794 795 795 795 795 795 796 797 798 799 800 801 802 802 803 804 805 805 806 807 807
762 763 760 766 781 787 791 808 821 818 812 807 804 804 804 805 806 805 810 819 821 820 821 819 818 820 820 818 817 817 815 814 815 817 817 816 816 816 815 814 813 812 811 811 810 809 808 807 807 807 806 805 803 802 802 801 801 800 799 799 799 798 797 796 796 795 795 794 795 796 796 796 797 798 798 799 800 801 801 802 803 804 805 805 806 807
765 769 765 765 779 786 783 792 808 811 808 807 806 805 804 807 810 806 809 819 824 821 821 819 818 820 821 820 819 817 814 815 819 821 820 819 818 818 817 815 814 812 811 811 810 810 809 808 807 807 806 805 804 803 802 801 801 800 799 799 800 800 800 799 798 797 796 796 795 795 796 796 797 797 798 798 799 800 801 801 802 803 804 805 806 807
771 775 774 769 776 782 780 787 805 812 810 810 809 806 806 809 809 806 809 818 823 822 822 821 819 820 821 821 821 819 818 821 823 821 820 820 820 818 817 816 814 813 812 810 810 809 808 808 807 806 806 805 805 804 803 801 800 799 799 798 798 799 799 799 799 798 798 798 797 796 796 795 795 796 797 798 799 800 800 801 802 803 803 804 805 806
785 786 786 783 784 787 788 802 820 821 812 809 808 807 808 808 806 807 812 818 821 823 823 821 821 821 821 820 820 820 821 823 823 821 820 821 819 818 816 815 814 813 812 810 809 808 807 807 806 806 805 805 804 804 803 801 800 799 799 798 797 797 797 798 798 797 797 797 797 796 796 795 795 795 796 798 798 799 800 801 801 802 803 804 805 806
796 796 797 797 798 798 800 811 823 821 813 810 809 808 806 805 807 814 818 820 821 822 822 822 822 822 822 822 822 822 822 822 822 821 820 819 818 817 816 814 813 812 811 810 809 807 806 805 804 804 804 804 804 803 802 801 800 799 799 798 797 796 796 796 796 796 796 796 795 795 795 796 795 795 796 797 798 798 799 800 801 802 802 803 804 805
801 803 806 808 808 807 809 815 818 818 815 811 809 810 811 812 816 821 822 822 822 822 822 823 823 823 823 823 823 823 822 822 821 820 819 818 817 816 814 813 813 811 809 809 808 807 806 805 803 802 802 802 801 801 801 800 800 799 798 796 795 795 794 794 793 793 793 794 794 794 794 795 794 794 795 796 796 797 798 799 800 801 801 802 803 804
802 804 807 812 812 812 817 824 824 822 820 814 811 816 820 819 820 821 821 822 823 822 822 823 823 824 824 823 823 823 823 822 821 820 819 818 817 816 814 813 812 810 809 807 806 805 805 803 802 801 800 800 799 799 799 798 798 797 796 795 794 793 792 791 791 790 791 791 792 793 793 793 793 793 794 794 795 796 797 797 798 799 800 801 802 803
805 804 806 814 819 819 821 826 826 823 821 818 816 819 821 820 820 821 822 823 823 823 823 823 822 823 823 823 823 823 822 822 821 821 820 819 818 817 815 814 812 811 809 807 805 804 803 801 800 799 798 797 797 796 796 796 795 794 793 793 793 792 791 790 789 788 788 788 789 789 790 790 790 791 792 792 793 794 795 796 797 797 798 799 800 801
807 805 806 814 822 823 823 825 825 823 823 821 819 820 821 821 822 822 822 822 823 823 822 822 822 822 822 823 823 823 822 822 822 821 821 820 819 817 815 814 813 811 809 807 805 804 802 800 798 797 795 795 794 794 794 793 792 791 790 790 791 790 790 789 788 787 786 786 786 786 786 787 788 788 788 789 790 791 792 794 795 796 796 797 798 799
805 804 807 814 819 821 824 826 824 823 823 822 822 822 822 822 822 823 822 823 822 822 822 822 822 822 821 822 823 822 822 822 822 822 821 820 818 817 815 814 812 811 809 807 805 804 802 800 798 796 794 792 792 792 792 791 790 789 788 788 788 788 787 787 786 786 785 784 784 784 784 784 785 786 786 786 787 788 789 790 792 793 794 795 796 796
806 804 807 813 817 819 822 823 822 823 824 824 824 824 824 823 823 823 822 822 822 822 822 822 822 822 822 822 823 823 822 823 823 822 821 820 818 816 814 813 811 810 808 806 805 803 801 799 797 795 793 790 789 789 789 788 787 786 786 785 785 785 785 784 783 783 783 783 783 782 782 782 783 783 784 784 785 785 786 787 788 790 791 792 793 794
809 807 810 816 821 824 823 821 823 826 827 826 826 826 825 825 824 823 823 823 823 823 823 822 823 823 823 823 823 823 823 822 822 822 821 819 817 815 813 812 810 808 807 805 803 801 800 797 795 793 790 788 786 786 785 784 783 783 783 782 782 783 782 781 781 780 780 780 780 780 780 780 781 781 781 781 782 782 783 784 785 787 788 789 790 791
810 810 814 818 821 823 821 820 822 825 824 825 826 826 825 825 825 824 824 823 823 823 823 823 824 824 824 824 823 823 823 822 821 821 820 818 816 815 812 811 809 806 805 803 801 799 797 795 793 790 787 785 784 783 782 780 779 779 779 780 780 780 779 778 778 777 776 776 777 777 777 778 778 779 779 779 779 780 780 781 783 784 785 786 787 789
811 811 813 814 815 817 817 818 820 820 820 823 825 825 825 825 824 824 824 823 824 824 824 824 824 824 824 823 823 822 822 821 820 819 818 816 815 813 811 809 807 805 803 801 798 796 794 792 790 788 785 782 781 780 778 776 774 774 774 775 776 776 776 775 775 774 773 773 773 773 774 775 776 777 777 777 777 778 778 779 780 781 783 784 785 787